www.pogodaiklimat.ru

Погода и климат >> Архив погоды >> Канада >> Toronto


АРХИВ ПОГОДЫ в Toronto

Время (UTC), дата Ветер
(напр.,м/с)
 
Видим.   Явления Облачность Т
(С)
Тd
(С)
f
(%)
Тe
(С)
Тes
(С)
Комфортность P
(гПа)
Po
(гПа)
Тmin
(С)
Tmax
(С)
R
(мм)
R24
(мм)
S
(см)
09 18.09 З 2 24 км 1/1 1500 м
[]
+20.2 +18.4 89 +24 +24 комфорт 1010.1 989.7
12 18.09 СЗ 4 24 км 4/0
[Ac trans Ci fib]
+20.9 +18.7 87 +25 +26 комфорт 1010.9 990.5 +19.2 +27.0
15 18.09 СЗ 4 24 км 6/6 300 м
[]
+23.8 +19.5 77 +29 +31 душно 1011.0 990.6
18 18.09 З 5 24 км 1/1 600 м
[Cu Sc Ci fib]
+26.3 +16.3 54 +30 +36 душно 1010.6 990.2 +19.2 +26.5
21 18.09 С 6 24 км 1/1 600 м
[]
+25.8 +17.1 59 +30 +31 душно 1010.4 990.0
00 19.09 С 8 24 км 3/0
[Ac As Ci fib]
+18.2 +13.4 74 +18 +18 тепло 1012.2 991.7 +18.2 +27.6
03 19.09 С 7 24 км 3/0
[]
+15.5 +12.4 82 +14 +14 по сезону 1013.4 992.8
06 19.09 С 4 24 км 8/0
[Ac As Ci fib]
+15.9 +12.8 82 +15 +15 тепло 1013.6 993.1 +15.3 +27.6 11
09 19.09 С 6 24 км 3/0
[]
+14.6 +11.7 83 +13 +13 по сезону 1014.7 994.0
12 19.09 С 4 24 км ясно +13.6 +11.7 88 +12 +12 по сезону 1017.3 996.4 +13.3 +27.6
15 19.09 С 4 24 км ясно +16.7 +11.1 70 +16 +21 по сезону 1018.3 997.4
18 19.09 СВ 3 24 км ясно +20.0 +11.0 56 +22 +32 комфорт 1018.4 997.6 +13.3 +20.4
21 19.09 СВ 2 24 км 3/3 1000 м
[]
+21.4 +11.4 53 +23 +26 комфорт 1017.5 996.7
00 20.09 ЮВ 2 24 км 5/1 1000 м
[Cu hum Ac trans Ci fib]
+17.6 +13.2 75 +18 +18 тепло 1019.1 998.2 +13.3 +22.2
03 20.09 В 2 24 км 5/5 600 м
[]
+16.9 +13.3 79 +17 +17 тепло 1020.3 999.4
06 20.09 В 2 24 км 6/4 600 м
[Sc Ci fib]
+15.9 +12.4 80 +16 +16 тепло 1020.0 999.2 +13.3 +22.2 10
09 20.09 В 3 24 км 9/9 300 м
[]
+15.7 +13.0 84 +15 +15 тепло 1019.9 999.1
12 20.09 В 3 24 км 9/3 600 м
[Sc Ac As Ci fib]
+16.0 +13.4 85 +16 +16 тепло 1021.5 1000.6 +14.6 +22.2
15 20.09 В 5 24 км 9/9 600 м
[]
+18.3 +13.3 73 +18 +19 тепло 1022.6 1001.7
18 20.09 В 4 24 км 10/1 600 м
[Cu hum Ac As]
+18.6 +12.9 69 +19 +21 по сезону 1021.7 1000.8 +14.6 +19.2
21 20.09 В 5 24 км 10/10 600 м
[]
+17.9 +12.9 73 +17 +17 по сезону 1019.6 998.7
00 21.09 В 5 24 км 9/8 600 м
[Sc Ac As]
+18.1 +13.3 74 +18 +18 тепло 1019.5 998.6 +14.6 +19.2
03 21.09 В 6 24 км 9/9 300 м
[]
+18.0 +14.8 82 +18 +18 тепло 1017.5 996.7
06 21.09 В 3 24 км 9/5 300 м
[Sc Ac As]
+18.6 +16.8 89 +20 +20 тепло 1014.4 993.7 +14.6 +19.2 3
09 21.09 Ю 2 24 км 9/0
[]
+19.4 +17.9 91 +22 +22 комфорт 1012.3 991.6
12 21.09 ЮЗ 6 24 км 4/0
[Ac As Ci fib]
+23.7 +21.5 87 +30 +30 очень
душно
1010.3 989.9 +17.9 +19.2
15 21.09 ЮЗ 8 24 км 1/0
[]
+29.0 +20.8 61 +36 +38 очень
душно
1008.1 987.8
18 21.09 ЮЗ 12 24 км 1/1 1500 м
[Sc diur, vesp Ac As]
+31.9 +18.8 46 +37 +37 очень
душно
1004.9 984.7 +17.8 +32.0
21 21.09 ЮЗ 11 24 км 9/9 1000 м
[]
+28.3 +19.7 60 +34 +34 очень
душно
1004.3 984.1
00 22.09 З 11 24 км {ливн. осадки} 5/5 1500 м
[Cu Sc Ci fib]
+24.0 +14.9 57 +27 +27 жарко 1007.1 986.8 +18.6 +32.2 0.4
03 22.09 СЗ 13 24 км 5/5 1000 м
[]
+17.3 +8.9 58 +15 +15 тепло 1014.6 994.1
06 22.09 СЗ 9 24 км 6/6 1000 м
[Sc]
+12.6 +6.3 65 +10 +10 по сезону 1018.6 997.9 +12.6 +32.2 223
09 22.09 СЗ 6 24 км 8/8 600 м
[]
+11.9 +6.8 71 +9 +9 по сезону 1021.9 1001.1
12 22.09 С 6 24 км 9/1 600 м
[Sc Ci fib]
+10.3 +3.8 64 +7 +7 прохладно 1025.5 1004.5 +10.0 +32.2
15 22.09 С 6 24 км 9/9 600 м
[]
+12.3 +4.0 57 +10 +10 прохладно 1026.6 1005.5
18 22.09 СЗ 1 24 км 9/1 1000 м
[Cu hum Ci fib]
+15.7 +4.7 48 +16 +26 по сезону 1025.8 1004.7 +10.0 +15.7
21 22.09 ЮВ 5 24 км 9/9 1000 м
[]
+15.2 +5.6 53 +14 +14 прохладно 1024.3 1003.2
00 23.09 Ю 2 24 км 6/0
[Ci fib]
+12.9 +6.0 63 +13 +13 по сезону 1024.2 1003.1 +10.0 +16.3
03 23.09 ЮЗ 2 24 км 3/3 1000 м
[]
+11.4 +5.7 68 +10 +10 прохладно 1024.2 1003.1
06 23.09 ЮЗ 1 24 км ясно +10.4 +6.0 74 +10 +10 по сезону 1023.8 1002.7 +10.0 +16.3 71
09 23.09 С 2 24 км ясно +8.1 +3.8 74 +7 +7 прохладно 1024.3 1003.2
12 23.09 СЗ 3 24 км ясно +8.2 +4.0 75 +6 +6 прохладно 1024.4 1003.2 +6.4 +16.3
15 23.09 СЗ 1 24 км ясно +15.6 +6.1 53 +16 +25 тепло 1025.3 1004.2
18 23.09 ЮВ 4 24 км ясно +18.5 +8.3 51 +19 +27 тепло 1023.8 1002.8 +6.4 +19.1
21 23.09 ЮВ 4 24 км 1/1 1000 м
[]
+17.1 +8.3 56 +17 +19 по сезону 1023.8 1002.7
00 24.09 СВ 3 24 км ясно +15.5 +7.4 58 +15 +15 по сезону 1024.8 1003.7 +6.4 +19.1
03 24.09 СВ 3 24 км ясно +14.4 +8.8 69 +14 +14 по сезону 1026.3 1005.2
06 24.09 В 5 24 км 9/9 300 м
[Sc]
+13.0 +9.9 81 +11 +11 по сезону 1027.4 1006.3 +6.4 +19.1 6
09 24.09 СВ 5 24 км 10/10 300 м
[]
+10.9 +8.0 82 +8 +8 по сезону 1028.1 1007.0
12 24.09 СВ 6 24 км 10/10 300 м
[Sc]
+10.3 +7.1 81 +7 +7 прохладно 1029.2 1008.0 +10.3 +19.1
15 24.09 СВ 4 24 км 10/10 300 м
[]
+12.6 +9.3 80 +11 +11 прохладно 1028.8 1007.6
18 24.09 В 6 24 км 9/9 300 м
[Sc Ac trans Ci fib]
+17.5 +12.6 73 +17 +17 по сезону 1026.8 1005.7 +10.2 +17.6
21 24.09 В 6 24 км 9/9 600 м
[]
+17.3 +12.7 74 +16 +17 по сезону 1024.8 1003.7
00 25.09 В 4 24 км 10/10 600 м
[Sc]
+18.3 +14.8 80 +19 +19 тепло 1023.6 1002.6 +10.2 +18.5
03 25.09 ЮВ 6 24 км 10/10 600 м
[]
+18.6 +13.4 72 +19 +19 тепло 1023.0 1002.0
06 25.09 ЮВ 6 16 км слабый дождь 10/10 100 м
[Sc]
+16.0 +14.9 93 +15 +15 тепло 1021.7 1000.8 +10.2 +19.5 2 181

 

Местоположение метеостанции Toronto (Канада): широта 43.67 долгота -79.63 высота над уровнем моря 173 м.

В архиве по умолчанию представлена погода в Toronto за последнюю неделю. Архивные данные за месяц целиком и за предыдущие месяцы, начиная с января 2011 года, Вы можете получить, выбрав интересующий диапазон дат из раскрывающегося списка и нажав кнопку "Ввод!".


*Определитесь, кто Вы:
робот инопланетянин человек

Внимание! Время в таблицах - всемирное. Для получения местного времени необходимо прибавить поправку, которая в Toronto равна -5 ч.

Смотрите также архив погоды в соседних городах и на ближайших метеорологических станциях:

Погода в Toronto Aes Hq (Канада) (18 км)
Погода в Toronto City (Канада) (19 км)
Погода в Toronto Island Arpt (Канада) (19 км)
Погода в Toronto Buttonville (Канада) (31 км)
Погода в Buttonville (Канада) (31 км)
Погода в Burlington Piers (Канада) (43 км)
Погода в Hamilton Rbg Cs (Канада) (49 км)
Погода в Guelph Turfgrass (Канада) (49 км)
Погода в Vineland Station Rc (Канада) (58 км)
Погода в Port Weller (Канада) (58 км)

Пояснения к столбцам:

Ветер - указаны скорость ветра в м/с - средняя за 10 мин, порывы в срок и между сроками (в фигурных скобках) и направление, откуда дует ветер: С - северный, СВ - северо-восточный, В - восточный, ЮВ - юго-восточный, Ю - южный, ЮЗ - юго-западный, З - западный, СЗ - северо-западный.
Видимость - горизонтальная дальность видимости в метрах или километрах. При видимости от 1 до 10 км при отсутствии осадков обычно наблюдается дымка, при ухудшении видимости до 1 км и менее - туман. В сухую погоду видимость может ухудшаться дымом, пылью или мглою.
Явления - указаны атмосферные явления, наблюдавшиеся в срок или в последний час перед сроком; фигурными скобками обозначены явления, наблюдавшиеся между сроками (за 1-3 часа до срока); квадратными скобками обозначены град или гололедные отложения с указанием их диаметра в мм.
Облачность - указаны через наклонную черту общая и нижняя облачность в баллах и высота нижней границы облаков в метрах; квадратными скобками обозначены формы облаков: Ci - перистые, Cs - перисто-слоистые, Cc - перисто-кучевые, Ac - высококучевые, As - высокослоистые, Sc - слоисто-кучевые, Ns - слоисто-дождевые, Cu - кучевые, Cb - кучево-дождевые. Подробнее классификацию облаков см. в Атласе облаков (PDF).
T - Температура воздуха - температура, измеренная на высоте 2 м над землей.
Td - Температура точки росы - температура, при понижении до которой содержащийся в воздухе водяной пар достигнет насыщения.
f - Относительная влажность воздуха - влажноcть воздуха, измеренная на высоте 2 м над землей.
Te - Эффективная температура - температура, которую ощущает одетый по сезону человек в тени. Характеристика душности погоды. При расчете учитывается влияние влажности воздуха и скорости ветра на теплоощущения человека.
Tes - Эффективная температура на солнце - температура, которую ощущает человек, с поправкой на солнечный нагрев. Характеристика знойности погоды. Зависит от высоты солнца над горизонтом, облачности и скорости ветра. Ночью, в пасмурную погоду, а также при ветре 12 м/с и более поправка равна нулю.
P - Атмосферное давление - приведенное к уровню моря атмосферное давление.
Po - Атмосферное давление - измеренное на уровне метеостанции атмосферное давление.
Tmin - Минимальная температура - минимум температуры воздуха на высоте 2 м над землей.
Tmax - Максимальная температура - максимум температуры воздуха на высоте 2 м над землей.
R - Количество осадков - Количество выпавших осадков за период времени, мм. При наведении курсора мыши на число - период времени, за который выпало указанное количество осадков.
R24 - Количество осадков - Количество выпавших осадков за 24 часа, мм.
S - Снежный покров - Высота снежного покрова, см. При наведении курсора мыши на число - состояние снежного покрова и степень покрытия местности в баллах.